• In Czech Republic
  • List of Countries
  • For 7 days
  • Water Temperature
  • Satellite Maps
  • Weather Map
  • Weather Widgets
  • user-avatar
    Login

    Hourly Weather Yulara

    Today, 22 August, Tuesday

    Time Temperature Precipitation Wind Pressure Humidity
    00:00 +15°C° 0 mm 5 mps 720 mmHg 41%
    01:00 +15°C° 0 mm 5 mps 720 mmHg 43%
    02:00 +14°C° 0 mm 5 mps 720 mmHg 45%
    03:00 +13°C° 0 mm 5 mps 720 mmHg 46%
    04:00 +13°C° 0 mm 4 mps 720 mmHg 48%
    05:00 +12°C° 0 mm 4 mps 720 mmHg 50%
    06:00 +12°C° 0 mm 4 mps 721 mmHg 52%
    07:00 +13°C° 0 mm 5 mps 721 mmHg 49%
    08:00 +15°C° 0 mm 6 mps 721 mmHg 46%
    09:00 +17°C° 0 mm 7 mps 721 mmHg 41%
    10:00 +18°C° 0 mm 7 mps 721 mmHg 37%
    11:00 +21°C° 0 mm 6 mps 721 mmHg 32%
    12:00 +23°C° 0 mm 6 mps 721 mmHg 28%
    13:00 +25°C° 0 mm 5 mps 721 mmHg 26%
    14:00 +26°C° 0 mm 4 mps 720 mmHg 24%
    15:00 +27°C° 0 mm 3 mps 720 mmHg 22%
    16:00 +26°C° 0 mm 2 mps 720 mmHg 24%
    17:00 +25°C° 0 mm 2 mps 719 mmHg 25%
    18:00 +24°C° 0 mm 2 mps 719 mmHg 27%
    19:00 +22°C° 0 mm 3 mps 720 mmHg 29%
    20:00 +22°C° 0 mm 3 mps 720 mmHg 30%
    21:00 +21°C° 0 mm 3 mps 721 mmHg 32%
    22:00 +20°C° 0 mm 3 mps 721 mmHg 34%
    23:00 +19°C° 0 mm 3 mps 721 mmHg 36%

    Tomorrow, 23 August, Wednesday

    Time Temperature Precipitation Wind Pressure Humidity
    00:00 +19°C° 0 mm 4 mps 721 mmHg 39%
    01:00 +18°C° 0 mm 4 mps 720 mmHg 40%
    02:00 +17°C° 0 mm 4 mps 720 mmHg 42%
    03:00 +17°C° 0 mm 4 mps 720 mmHg 44%
    04:00 +15°C° 0 mm 4 mps 720 mmHg 44%
    05:00 +15°C° 0 mm 4 mps 720 mmHg 44%
    06:00 +15°C° 0 mm 4 mps 721 mmHg 44%
    07:00 +17°C° 0 mm 4 mps 721 mmHg 41%
    08:00 +18°C° 0 mm 4 mps 721 mmHg 37%
    09:00 +19°C° 0 mm 4 mps 722 mmHg 34%
    10:00 +21°C° 0 mm 4 mps 722 mmHg 31%
    11:00 +23°C° 0 mm 4 mps 722 mmHg 28%
    12:00 +26°C° 0 mm 4 mps 722 mmHg 25%
    13:00 +26°C° 0 mm 4 mps 721 mmHg 24%
    14:00 +27°C° 0 mm 4 mps 721 mmHg 24%
    15:00 +28°C° 0 mm 4 mps 720 mmHg 23%
    16:00 +27°C° 0 mm 4 mps 720 mmHg 24%
    17:00 +26°C° 0 mm 4 mps 720 mmHg 25%
    18:00 +25°C° 0 mm 3 mps 721 mmHg 25%
    19:00 +24°C° 0 mm 3 mps 721 mmHg 26%
    20:00 +22°C° 0 mm 3 mps 722 mmHg 27%
    21:00 +21°C° 0 mm 4 mps 722 mmHg 27%
    22:00 +21°C° 0 mm 4 mps 722 mmHg 27%
    23:00 +20°C° 0 mm 4 mps 723 mmHg 27%

    Day after tomorrow, 24 August, Thursday

    Time Temperature Precipitation Wind Pressure Humidity
    00:00 +19°C° 0 mm 5 mps 723 mmHg 27%
    01:00 +17°C° 0 mm 5 mps 723 mmHg 31%
    02:00 +17°C° 0 mm 5 mps 723 mmHg 34%
    03:00 +16°C° 0 mm 5 mps 722 mmHg 38%
    04:00 +15°C° 0 mm 5 mps 723 mmHg 40%
    05:00 +15°C° 0 mm 5 mps 723 mmHg 42%
    06:00 +14°C° 0 mm 5 mps 723 mmHg 43%
    07:00 +15°C° 0 mm 6 mps 724 mmHg 40%
    08:00 +17°C° 0 mm 7 mps 724 mmHg 36%
    09:00 +18°C° 0 mm 7 mps 725 mmHg 32%
    10:00 +21°C° 0 mm 7 mps 724 mmHg 29%
    11:00 +22°C° 0 mm 7 mps 724 mmHg 27%
    12:00 +24°C° 0 mm 6 mps 724 mmHg 24%
    13:00 +24°C° 0 mm 6 mps 723 mmHg 23%
    14:00 +26°C° 0 mm 5 mps 722 mmHg 21%
    15:00 +26°C° 0 mm 5 mps 722 mmHg 20%
    16:00 +25°C° 0 mm 5 mps 722 mmHg 21%
    17:00 +23°C° 0 mm 4 mps 722 mmHg 21%
    18:00 +23°C° 0 mm 4 mps 722 mmHg 22%
    19:00 +21°C° 0 mm 5 mps 722 mmHg 24%
    20:00 +20°C° 0 mm 5 mps 723 mmHg 25%
    21:00 +19°C° 0 mm 5 mps 723 mmHg 26%
    22:00 +17°C° 0 mm 5 mps 723 mmHg 28%
    23:00 +17°C° 0 mm 6 mps 723 mmHg 29%

    25 August, Friday

    Time Temperature Precipitation Wind Pressure Humidity
    00:00 +16°C° 0 mm 6 mps 723 mmHg 30%
    01:00 +15°C° 0 mm 6 mps 723 mmHg 32%
    02:00 +15°C° 0 mm 5 mps 722 mmHg 34%
    03:00 +14°C° 0 mm 5 mps 722 mmHg 35%
    04:00 +14°C° 0 mm 5 mps 722 mmHg 37%
    05:00 +13°C° 0 mm 5 mps 722 mmHg 39%
    06:00 +13°C° 0 mm 5 mps 723 mmHg 41%
    07:00 +14°C° 0 mm 6 mps 723 mmHg 38%
    08:00 +15°C° 0 mm 7 mps 723 mmHg 35%
    09:00 +17°C° 0 mm 8 mps 724 mmHg 32%
    10:00 +18°C° 0 mm 8 mps 723 mmHg 29%
    11:00 +21°C° 0 mm 7 mps 723 mmHg 25%
    12:00 +23°C° 0 mm 7 mps 723 mmHg 22%
    13:00 +24°C° 0 mm 7 mps 722 mmHg 21%
    14:00 +26°C° 0 mm 6 mps 721 mmHg 20%
    15:00 +27°C° 0 mm 6 mps 720 mmHg 19%
    16:00 +26°C° 0 mm 5 mps 720 mmHg 20%
    17:00 +25°C° 0 mm 5 mps 720 mmHg 21%
    18:00 +23°C° 0 mm 4 mps 720 mmHg 22%
    19:00 +22°C° 0 mm 5 mps 721 mmHg 23%
    20:00 +20°C° 0 mm 5 mps 721 mmHg 24%
    21:00 +19°C° 0 mm 5 mps 722 mmHg 25%
    22:00 +19°C° 0 mm 6 mps 721 mmHg 26%
    23:00 +17°C° 0 mm 6 mps 721 mmHg 27%

    26 August, Saturday

    Time Temperature Precipitation Wind Pressure Humidity
    00:00 +16°C° 0 mm 6 mps 721 mmHg 28%
    01:00 +16°C° 0 mm 6 mps 721 mmHg 29%
    02:00 +15°C° 0 mm 6 mps 720 mmHg 29%
    03:00 +14°C° 0 mm 6 mps 720 mmHg 30%
    04:00 +14°C° 0 mm 5 mps 721 mmHg 30%
    05:00 +13°C° 0 mm 5 mps 721 mmHg 30%
    06:00 +13°C° 0 mm 5 mps 721 mmHg 30%
    07:00 +14°C° 0 mm 5 mps 722 mmHg 27%
    08:00 +16°C° 0 mm 6 mps 722 mmHg 24%
    09:00 +17°C° 0 mm 6 mps 723 mmHg 21%
    10:00 +19°C° 0 mm 6 mps 723 mmHg 20%
    11:00 +20°C° 0 mm 5 mps 722 mmHg 20%
    12:00 +22°C° 0 mm 5 mps 722 mmHg 19%
    13:00 +22°C° 0 mm 5 mps 722 mmHg 18%
    14:00 +23°C° 0 mm 5 mps 721 mmHg 18%
    15:00 +25°C° 0 mm 5 mps 720 mmHg 17%
    16:00 +23°C° 0 mm 5 mps 721 mmHg 18%
    17:00 +22°C° 0 mm 5 mps 721 mmHg 19%
    18:00 +21°C° 0 mm 4 mps 721 mmHg 20%
    19:00 +20°C° 0 mm 4 mps 721 mmHg 21%
    20:00 +19°C° 0 mm 5 mps 722 mmHg 23%
    21:00 +17°C° 0 mm 5 mps 722 mmHg 24%
    22:00 +17°C° 0 mm 5 mps 722 mmHg 24%
    23:00 +16°C° 0 mm 6 mps 722 mmHg 25%

    27 August, Sunday

    Time Temperature Precipitation Wind Pressure Humidity
    00:00 +15°C° 0 mm 6 mps 722 mmHg 26%
    01:00 +15°C° 0 mm 6 mps 721 mmHg 27%
    02:00 +14°C° 0 mm 6 mps 721 mmHg 27%
    03:00 +14°C° 0 mm 6 mps 721 mmHg 28%
    04:00 +13°C° 0 mm 6 mps 721 mmHg 28%
    05:00 +13°C° 0 mm 5 mps 721 mmHg 28%
    06:00 +12°C° 0 mm 5 mps 722 mmHg 29%
    07:00 +14°C° 0 mm 5 mps 722 mmHg 26%
    08:00 +15°C° 0 mm 6 mps 723 mmHg 24%
    09:00 +17°C° 0 mm 7 mps 723 mmHg 21%
    10:00 +20°C° 0 mm 7 mps 723 mmHg 20%
    11:00 +22°C° 0 mm 6 mps 722 mmHg 18%
    12:00 +24°C° 0 mm 6 mps 722 mmHg 17%
    13:00 +24°C° 0 mm 6 mps 721 mmHg 16%
    14:00 +26°C° 0 mm 6 mps 721 mmHg 16%
    15:00 +27°C° 0 mm 6 mps 720 mmHg 16%
    16:00 +26°C° 0 mm 5 mps 720 mmHg 17%
    17:00 +25°C° 0 mm 5 mps 720 mmHg 19%
    18:00 +23°C° 0 mm 4 mps 720 mmHg 21%
    19:00 +22°C° 0 mm 5 mps 721 mmHg 22%
    20:00 +21°C° 0 mm 5 mps 721 mmHg 23%
    21:00 +20°C° 0 mm 5 mps 721 mmHg 25%
    22:00 +20°C° 0 mm 5 mps 721 mmHg 26%
    23:00 +19°C° 0 mm 6 mps 721 mmHg 26%
    Show more